Retour au catalogue

STARLINK-32155

ActifCommunicationsVLEO
NORAD 60274·PAYLOAD·🇺🇸 United States

Lancé Jul 27, 2024 depuis Cape Canaveral Space Force Station

Loading…

Prochains Passages (prochaines 24 heures)

TLE

FraisSource: CelesTrak SupGP

Époque: Sep 14, 2026, 14:54 UTC

1 60274C 24131V   26257.62131944 -.00033467  00000+0 -10765-2 0  2574
2 60274  53.1583 253.7822 0001367  76.0297 158.7706 15.31710693    14

Suivez STARLINK-32155 en temps réel avec AllMySat

Download on the App Store